Copper Harbor, MI

4:11 AM EDT on May 21, 2018 (GMT -0400)
Copper Harbor

Weather History for KP59 - January, 2013

Change the Weather History Date:

Sunday, January 6, 2013

  Actual Average Record
Temperature  
Mean Temperature 21 °F -  
Max Temperature 28 °F 25 °F 42 °F (2012)
Min Temperature 14 °F 15 °F -6 °F (2014)
Degree Days  
Heating Degree Days 44    
Moisture  
Dew Point 17 °F    
Average Humidity 82    
Maximum Humidity 92    
Minimum Humidity 71    
Precipitation  
Precipitation 0.00 in - - ()
Sea Level Pressure  
Sea Level Pressure 30.09 in    
Wind  
Wind Speed 15 mph (NE)    
Max Wind Speed 25 mph    
Max Gust Speed 32 mph    
Averages and records for this station are not official NWS values.
T = Trace of Precipitation, MM = Missing Value Source: NWS Daily Summary

Daily Weather History Graph

Daily Weather History Graph

Search for Another Location

Airport or City:

Astronomy

Jan. 06, 2013 Rise Set
Actual Time 8:38 AM EST 5:17 PM EST
Civil Twilight 8:03 AM EST 5:52 PM EST
Nautical Twilight 7:24 AM EST 6:31 PM EST
Astronomical Twilight 6:47 AM EST 7:08 PM EST
Moon 2:43 AM EST (1/6) 12:52 PM EST (1/6)
Length of Visible Light 9h 49m
Length of Day
8h 38m
Waning Crescent, 33% of the Moon is Illuminated
Jan 6
Waning Crescent
Jan 11
New
Jan 18
First Quarter
Jan 26
Full
Feb 3
Last Quarter

Hourly Weather History & Observations

Time (EST) Temp. Windchill Dew Point Humidity Pressure Visibility Wind Dir Wind Speed Gust Speed Precip Events Conditions
12:51 AM 28.9 °F 16.9 °F 27.0 °F 92% 29.86 in - East 17.3 mph 31.1 mph N/A   Unknown
1:51 AM 28.9 °F 14.5 °F 27.0 °F 92% 29.87 in - East 25.3 mph 32.2 mph N/A   Unknown
2:51 AM 28.0 °F 13.9 °F 25.0 °F 88% 29.89 in - ENE 23.0 mph 32.2 mph N/A   Unknown
3:51 AM 28.0 °F 14.6 °F 24.1 °F 85% 29.93 in - ENE 20.7 mph 28.8 mph N/A   Unknown
4:51 AM 27.0 °F 13.5 °F 23.0 °F 85% 29.96 in - ENE 19.6 mph - N/A   Unknown
5:51 AM 26.1 °F 12.0 °F 21.9 °F 84% 29.97 in - ENE 20.7 mph 25.3 mph N/A   Unknown
6:51 AM 25.0 °F 11.3 °F 19.9 °F 81% 30.00 in - NE 18.4 mph - N/A   Unknown
7:51 AM 24.1 °F 12.5 °F 19.0 °F 81% 30.03 in - NE 12.7 mph 26.5 mph N/A   Unknown
8:51 AM 23.0 °F 8.0 °F 19.0 °F 85% 30.06 in - NE 20.7 mph 28.8 mph N/A   Unknown
9:51 AM 21.0 °F 6.6 °F 17.1 °F 85% 30.09 in - NE 17.3 mph 23.0 mph N/A   Unknown
10:51 AM 21.0 °F 8.1 °F 17.1 °F 85% 30.12 in - NE 13.8 mph - N/A   Unknown
11:51 AM 21.0 °F 9.3 °F 16.0 °F 81% 30.13 in - NE 11.5 mph 21.9 mph N/A   Unknown
12:51 PM 19.9 °F 7.9 °F 15.1 °F 81% 30.14 in - NE 11.5 mph - N/A   Unknown
1:51 PM 21.0 °F 9.9 °F 14.0 °F 74% 30.14 in - NNE 10.4 mph - N/A   Unknown
2:51 PM 21.0 °F 9.9 °F 14.0 °F 74% 30.15 in - NNE 10.4 mph - N/A   Unknown
3:51 PM 21.0 °F 9.9 °F 14.0 °F 74% 30.18 in - NNE 10.4 mph - N/A   Unknown
4:51 PM 19.9 °F 14.9 °F 14.0 °F 78% 30.20 in - NNW 3.5 mph - N/A   Unknown
5:51 PM 19.9 °F - 12.0 °F 71% 30.20 in - Calm Calm - N/A   Unknown
6:51 PM 19.9 °F 14.9 °F 12.9 °F 74% 30.20 in - WSW 3.5 mph - N/A   Unknown
7:51 PM 18.0 °F 11.1 °F 12.0 °F 78% 30.21 in - WSW 4.6 mph - N/A   Unknown
8:51 PM 15.1 °F - 10.9 °F 84% 30.21 in - Calm Calm - N/A   Unknown
9:51 PM 14.0 °F 8.2 °F 10.9 °F 88% 30.19 in - SW 3.5 mph - N/A   Unknown
10:51 PM 16.0 °F - 12.0 °F 84% 30.18 in - Calm Calm - N/A   Unknown
11:51 PM 18.0 °F - 14.0 °F 84% 30.17 in - Calm Calm - N/A   Unknown